This demonstration page uses our WeatherBlox Daily Observations layout. Learn more.

Left ArrowRight Arrow

39.95238, -75.16362

Hourly Observations for September 9, 2019

Temp ( °F °C ) Dew Point ( °F °C ) Humidity (%) Winds ( mph kmh ) Pressure ( in mb ) Visibility ( mi km ) Precip ( " mm )
12:54 am 00:54 Mostly Cloudy 72 22.2 63 17.2 73 73 WSW 5 7 30.13 1020 10 16 0.00 0.00
1:54 am 01:54 Cloudy 70 21.1 63 17.2 79 79 Calm 30.13 1020 10 16 0.00 0.00
2:54 am 02:54 Cloudy 70 21.1 63 17.2 79 79 Calm 30.13 1020 10 16 0.00 0.00
3:54 am 03:54 Cloudy 69 20.6 61 16.1 76 76 NE 7 11 30.14 1021 10 16 0.00 0.00
4:54 am 04:54 Cloudy 68 20 62 16.7 81 81 ENE 5 7 30.15 1021 10 16 0.00 0.00
5:54 am 05:54 Mostly Cloudy 68 20 62 16.7 81 81 NE 6 9 30.16 1021 10 16 0.00 0.00
6:54 am 06:54 Mostly Cloudy 68 20 62 16.7 81 81 NE 5 7 30.18 1022 10 16 0.00 0.00
7:54 am 07:54 Mostly Cloudy 69 20.6 62 16.7 78 78 ENE 6 9 30.19 1022 10 16 0.00 0.00
8:54 am 08:54 Mostly Cloudy 71 21.7 62 16.7 73 73 NE 6 9 30.21 1023 10 16 0.00 0.00
9:54 am 09:54 Mostly Cloudy 73 22.8 63 17.2 71 71 ENE 5 7 30.22 1023 10 16 0.00 0.00
10:54 am 10:54 Mostly Cloudy 77 25 63 17.2 62 62 Calm 30.22 1023 10 16 0.00 0.00
11:54 am 11:54 Mostly Cloudy 78 25.6 61 16.1 56 56 VRB 3 6 30.22 1023 10 16 0.00 0.00
12:54 pm 12:54 Mostly Cloudy 79 26.1 59 15 50 50 Calm 30.21 1023 10 16 0.00 0.00
1:54 pm 13:54 Partly Cloudy 83 28.3 60 15.6 46 46 VRB 6 9 30.19 1022 10 16 0.00 0.00
2:54 pm 14:54 Mostly Cloudy 83 28.3 58 14.4 43 43 VRB 3 6 30.18 1022 10 16 0.00 0.00
3:54 pm 15:54 Mostly Cloudy 82 27.8 54 12.2 38 38 SW 6 9 30.18 1022 10 16 0.00 0.00
4:54 pm 16:54 Mostly Cloudy 82 27.8 55 12.8 40 40 WNW 6 9 30.18 1022 10 16 0.00 0.00
5:54 pm 17:54 Mostly Cloudy 81 27.2 56 13.3 42 42 VRB 6 9 30.20 1023 10 16 0.00 0.00
6:54 pm 18:54 Mostly Cloudy 77 25 62 16.7 60 60 ESE 10 17 30.20 1023 10 16 0.00 0.00
7:54 pm 19:54 Partly Cloudy 74 23.3 63 17.2 69 69 E 9 15 30.22 1023 10 16 0.00 0.00
8:54 pm 20:54 Mostly Clear 72 22.2 64 17.8 76 76 E 7 11 30.24 1024 10 16 0.00 0.00
9:54 pm 21:54 Partly Cloudy 70 21.1 64 17.8 82 82 E 5 7 30.26 1025 10 16 0.00 0.00
10:54 pm 22:54 Partly Cloudy 70 21.1 64 17.8 82 82 Calm 30.27 1025 10 16 0.00 0.00
11:54 pm 23:54 Mostly Cloudy 70 21.1 65 18.3 84 84 Calm 30.28 1025 10 16 0.00 0.00

Powered by AerisWeather